Hourly Weather Roundup
Issued by NWS Central Illinois

Home | Current Version | Previous Version | Text Only | Print | Product List | Glossary On
Versions: 1 2 3 4 5 6 7 8 9 10 11 12 13 14 15 16 17 18 19 20 21 22 23 24 25 26 27 28 29 30 31 32 33 34 35 36 37 38 39 40 41 42 43 44 45 46 47 48 49 50
000
NZUS43 KILX 170110
HWRILX

AREA WEATHER ROUNDUP
NATIONAL WEATHER SERVICE, LINCOLN IL
800 PM CDT WED APR 16 2014


CITY           SKY/WX    TMP DP  RH WIND       PRES   REMARKS
BLOOMINGTON    MOCLDY    45  26  47 S18G24    30.10S
CHAMPAIGN      CLEAR     46  29  51 SE12      30.14R
DANVILLE       PTCLDY    46  26  46 SE10      30.14R
DECATUR        CLEAR     49  28  44 SE18G26   30.10F
FLORA          NOT AVBL
GALESBURG      MOCLDY    50  31  47 SE12G18   30.03R
JACKSONVILLE   MOCLDY    50  27  40 SE7       30.05R
LACON          MOCLDY    49  26  41 S20G29    30.05S
LAWRENCEVILLE  MOCLDY    48  29  47 SE8       30.18S
LITCHFIELD     CLEAR     48  30  50 SE10G20   30.07F
$$


CITY           SKY/WX    TMP DP  RH WIND       PRES   REMARKS
LINCOLN        PTCLDY    49  29  47 SE14      30.08S
MACOMB         MOCLDY    51  30  44 S13       30.05R
MATTOON        CLEAR     47  27  45 SE12      30.13S
MT CARMEL AP   MOCLDY    50  32  50 SE8       30.17S
OLNEY-NOBLE AP MOCLDY    46  30  53 SE6       30.16S
PARIS          PTCLDY    46  30  54 SE10      30.17S
PEORIA         CLEAR     50  26  39 S17       30.06R
PONTIAC        MOCLDY    48  28  46 SE14      30.10F
RANTOUL        CLEAR     47  29  49 SE8       30.15R
ROBINSON       MOCLDY    47  31  53 SE8       30.19R
SPRINGFIELD    PTCLDY    51  27  39 SE15G25   30.08R
TAYLORVILLE    CLEAR     46  30  53 SE14      30.08S
$$

...REGIONAL REPORTS...


CITY           SKY/WX    TMP DP  RH WIND       PRES   REMARKS
CHICAGO O`HARE CLOUDY    49  23  36 SE21      30.13R
KANKAKEE       CLEAR     46  28  48 SE13      30.15R
MOLINE         CLOUDY    51  26  37 S9        30.02R
MOUNT VERNON   MOCLDY    50  27  40 SE7       30.14S
PITTSFIELD     MOCLDY    52  25  34 S12       30.04R
QUINCY         PTCLDY    53  26  35 S9        30.00R
ROCKFORD       CLOUDY    48  28  46 SE17G24   30.06F
$$


CITY           SKY/WX    TMP DP  RH WIND       PRES   REMARKS
BURLINGTON     MOCLDY    53  28  38 S14       29.98R
CEDAR RAPIDS   CLOUDY    53  28  38 SE20G28   29.89S
DES MOINES     MOCLDY    62  32  32 S22G28    29.78R
KIRKSVILLE     PTCLDY    56  29  35 S21G28    29.92S
OTTUMWA        MOCLDY    57  30  35 S17G29    29.87S
ST LOUIS       MOCLDY    54  23  30 SE18      30.06R
$$


CITY           SKY/WX    TMP DP  RH WIND       PRES   REMARKS
TERRE HAUTE    MOCLDY    47  25  42 SE8       30.18S
EVANSVILLE     MOCLDY    51  28  41 SE3       30.18R
INDIANAPOLIS   MOCLDY    45  21  38 SE13      30.21R
LAFAYETTE      PTCLDY    46  22  38 SE9       30.20R
MADISON        CLOUDY    49  29  46 SE17G33   30.02S
MILWAUKEE      CLOUDY    42  27  55 SE23G29   30.16R WCI  33
$$




USA.gov is the U.S. government's official web portal to all federal, state and local government web resources and services.